Theta_e
316 314 324 326 319 319 321 322 323 323 323 328 334 333 335 339 343 342 339 337 328 326 326 324 324 324 323 323 322 322 321 320 320 320 319 319 319 318 319 318 318 318 317 317 318 318 319 319 320
315 317 323 325 318 319 321 324 323 324 326 331 334 334 335 342 340 338 338 339 326 326 326 326 324 324 324 323 323 322 321 320 320 320 319 319 319 319 318 318 318 318 318 318 318 318 319 319 320
314 321 323 320 318 321 321 323 323 325 327 335 335 335 336 341 339 336 337 336 326 326 326 327 326 324 323 323 323 323 321 321 320 320 320 319 319 319 319 319 319 319 319 319 319 319 319 319 319
327 328 327 319 318 319 322 323 324 325 331 336 336 335 339 341 339 338 338 334 326 326 327 327 327 326 324 322 323 323 322 322 321 321 320 320 319 319 319 319 319 320 320 320 320 320 320 319 319
328 327 321 318 317 320 322 324 325 323 325 336 336 335 340 340 340 336 336 333 327 326 327 327 327 326 325 324 322 322 322 322 322 321 320 319 319 319 319 319 320 320 321 321 321 321 321 320 320
328 325 321 320 321 322 322 324 324 323 324 331 334 335 337 339 339 337 336 333 327 327 327 327 327 326 326 325 324 322 321 320 320 320 320 319 319 318 319 319 319 320 321 321 321 321 321 321 320
327 325 323 321 322 323 323 324 322 322 323 325 331 334 338 339 338 336 335 331 327 328 328 328 327 327 326 325 324 323 322 321 320 320 319 319 319 318 318 318 318 319 320 321 321 321 321 321 321
321 328 330 330 329 326 325 327 327 325 324 325 326 331 336 338 339 335 333 330 327 328 328 328 328 328 326 325 324 324 323 322 321 320 319 319 319 318 318 317 317 318 319 320 320 321 321 321 321
322 322 329 330 329 329 328 326 328 327 326 326 325 336 339 340 339 335 337 339 338 336 328 328 328 327 327 326 326 325 324 322 320 320 319 318 318 318 317 317 317 317 317 318 319 320 321 321 322
320 320 322 326 327 328 327 327 327 327 325 325 325 330 335 339 337 335 336 340 339 338 337 329 328 328 328 326 326 325 325 324 323 322 321 320 318 318 317 317 316 316 316 317 318 319 320 321 321
319 321 321 323 325 327 327 328 328 328 324 326 326 326 334 335 339 338 335 337 339 338 335 330 330 330 328 327 326 325 325 324 323 322 322 321 319 318 318 317 316 316 316 316 317 318 319 320 321
315 317 321 322 323 324 325 327 328 328 329 328 327 326 326 327 335 339 339 336 338 337 337 336 333 332 333 331 330 329 328 330 331 331 330 328 323 321 319 319 318 317 318 318 318 317 318 319 320
314 315 317 319 322 323 324 325 326 328 328 328 329 328 327 327 334 337 338 338 336 338 339 338 338 338 338 337 335 333 333 332 332 332 333 335 335 334 332 330 326 326 322 324 328 330 326 320 320
313 314 316 318 318 320 322 323 324 326 327 327 329 329 329 329 331 334 334 336 336 337 340 340 340 339 340 341 341 338 330 328 329 332 331 332 334 336 339 339 337 335 331 330 332 334 334 330 324
312 312 313 316 317 317 319 320 321 323 325 327 328 328 328 329 330 331 333 334 335 336 336 337 338 338 337 342 341 337 330 328 329 331 328 328 331 336 339 341 342 340 335 334 334 337 335 334 333
311 311 311 315 317 318 318 317 319 321 323 324 328 328 328 329 329 330 333 333 336 335 334 334 335 341 341 343 338 337 335 329 332 337 336 333 334 338 341 342 343 342 339 335 335 338 336 335 335
310 310 310 312 313 314 316 318 318 319 321 323 323 324 329 328 328 329 329 332 333 335 334 334 333 337 339 339 337 335 333 329 326 330 334 343 344 344 343 343 343 343 341 338 337 337 338 337 337
311 310 311 311 312 312 312 313 316 319 320 320 323 325 327 328 328 327 328 329 330 331 333 332 333 333 333 333 336 335 334 332 331 330 328 335 343 344 341 343 344 343 342 340 339 338 336 337 336
314 314 314 314 314 312 312 313 314 315 315 318 320 321 322 328 328 327 328 328 329 331 332 332 332 332 332 332 332 332 331 330 331 328 328 328 333 340 340 343 345 344 343 341 341 339 337 336 335
311 312 313 313 314 313 312 312 313 313 314 316 317 320 321 321 328 329 330 330 329 329 333 332 331 332 332 332 330 329 329 331 325 323 326 328 336 338 342 344 344 343 343 342 341 340 339 337 336
310 310 311 312 312 312 312 312 312 313 314 315 317 318 321 321 322 326 326 328 329 330 331 332 332 331 330 329 328 328 326 325 322 326 336 337 340 342 342 343 344 344 343 342 341 340 339 338 337
312 312 312 312 311 310 312 312 311 312 313 314 316 318 320 321 323 324 324 325 327 331 332 331 330 329 329 328 327 327 326 323 321 325 337 342 342 343 344 343 343 343 341 343 341 340 340 340 338
313 313 312 312 312 311 311 311 312 312 313 313 313 315 316 321 321 323 323 324 326 331 331 330 329 329 329 328 327 326 325 324 322 331 332 345 344 344 344 344 344 341 343 343 342 341 340 340 336
313 311 312 312 311 312 311 311 312 312 312 313 313 315 315 317 321 321 325 324 324 325 327 328 326 326 326 325 324 325 324 325 329 334 340 344 345 346 347 344 343 342 343 342 342 342 339 337 335
310 310 311 313 312 312 312 313 313 313 312 313 314 315 315 316 317 320 323 324 325 326 326 325 324 324 324 323 324 325 325 327 328 336 346 346 346 347 346 342 343 342 342 341 343 342 337 337 338
311 311 313 313 310 310 313 314 312 313 314 314 314 315 316 316 316 320 322 323 324 325 324 324 324 324 325 325 326 327 326 328 328 335 345 345 345 345 346 342 340 341 343 342 342 340 337 336 334
310 311 311 313 312 313 313 313 313 313 315 317 317 316 316 317 317 321 324 325 325 325 325 326 324 324 323 323 323 328 327 328 330 336 347 348 346 347 346 341 342 342 342 340 341 338 336 333 331
312 311 312 312 316 316 315 314 315 317 317 315 314 314 315 317 320 324 324 324 325 326 327 328 331 330 325 324 326 328 328 333 328 335 347 348 347 341 339 342 343 343 341 340 337 335 332 331 331
313 313 313 315 314 315 315 314 316 316 315 315 314 314 316 318 320 323 323 326 331 334 334 331 334 331 327 326 328 330 334 334 341 352 351 347 346 341 343 343 344 342 340 338 336 332 331 332 330
311 314 314 316 315 317 318 316 315 313 314 314 313 314 317 319 320 320 320 325 332 330 329 333 337 329 327 328 330 338 342 343 351 350 347 348 345 343 343 344 342 339 338 335 332 331 333 332 330
Wind_Speed
7 4 2 8 2 2 6 8 14 16 10 10 12 10 6 6 5 4 24 35 37 34 33 31 28 27 26 25 25 23 20 18 17 15 14 12 10 10 9 8 8 7 7 7 7 7 7 7 7
5 4 5 5 3 2 6 17 19 19 22 4 12 10 9 3 20 32 35 23 34 35 35 31 28 27 25 24 23 22 20 18 16 15 13 11 10 9 8 7 6 5 5 5 5 5 6 6 5
3 2 3 4 4 9 6 7 11 19 36 11 5 7 1 11 28 38 28 29 35 34 33 31 28 25 24 23 21 20 19 17 16 14 13 12 11 10 8 7 6 5 4 3 3 2 3 4 4
3 2 6 0 10 13 22 17 18 19 16 13 9 4 10 20 33 29 34 31 36 34 32 30 28 24 23 21 20 19 18 17 16 15 14 13 12 10 8 7 7 6 5 4 2 1 0 3 3
3 6 3 4 11 15 18 23 23 15 15 11 8 3 16 24 26 30 34 31 37 35 33 31 27 24 22 20 19 19 18 18 16 15 15 14 12 11 9 9 8 8 7 6 4 4 3 2 2
3 5 2 5 13 17 18 25 16 14 21 10 8 7 8 26 28 37 31 32 36 37 34 31 28 25 23 21 20 19 19 18 18 17 16 15 14 14 13 12 12 11 10 10 8 8 7 6 5
9 3 7 8 15 18 18 30 10 10 11 14 11 1 16 29 28 33 32 33 36 35 35 32 29 26 23 22 20 19 19 19 18 18 18 18 17 17 17 16 15 15 15 14 12 12 11 9 9
8 5 15 15 15 19 22 23 26 14 16 24 19 6 5 24 26 33 34 34 35 35 34 32 30 28 26 24 22 20 19 20 20 19 20 20 20 21 20 20 19 18 19 17 16 15 15 12 12
17 5 12 19 18 17 23 15 28 25 19 24 20 8 10 18 31 31 28 31 28 26 33 33 31 29 26 25 23 21 21 21 21 22 23 23 24 25 24 24 23 22 22 21 20 19 18 17 16
9 7 17 14 15 17 21 19 24 18 14 18 19 3 3 21 23 30 32 35 36 29 26 31 30 29 27 26 25 23 22 22 22 24 23 25 26 27 26 27 26 26 26 25 23 23 22 22 19
13 17 14 19 25 31 28 27 28 20 10 21 18 19 9 13 22 22 29 29 41 33 28 31 29 27 27 27 26 25 25 24 24 26 25 27 28 29 29 30 30 29 29 29 28 27 27 26 23
16 22 25 27 31 33 25 32 26 25 23 29 31 26 27 19 22 27 26 33 42 38 35 31 28 26 22 23 22 21 21 19 19 19 22 27 29 31 30 31 31 30 29 28 28 29 30 29 26
18 17 26 30 30 32 36 30 26 31 33 35 30 27 27 25 20 21 21 13 12 23 36 38 31 21 15 20 20 19 19 19 19 21 20 22 23 24 23 25 27 27 28 27 23 23 26 30 27
15 20 22 27 28 31 24 27 28 35 34 36 35 28 26 25 23 11 11 11 3 18 22 38 28 21 18 23 19 18 18 20 22 23 21 22 23 25 23 23 22 24 26 25 21 20 20 21 22
21 11 15 17 20 15 17 19 28 35 30 29 35 39 35 27 28 28 28 22 19 15 24 24 23 29 39 31 23 19 19 22 24 23 21 23 26 28 27 27 23 22 24 25 23 21 18 18 19
7 8 7 1 10 20 14 26 22 25 32 33 27 37 43 33 34 31 29 34 34 27 20 14 11 21 26 30 23 21 21 25 29 29 27 27 28 30 30 32 29 23 22 26 28 21 20 19 21
6 8 12 16 13 12 11 25 24 31 27 25 34 34 35 44 35 37 31 31 33 25 23 31 29 27 23 27 23 20 20 23 27 28 27 32 35 34 34 35 30 25 23 27 27 27 23 22 22
8 8 9 12 5 7 13 20 17 25 31 31 31 31 34 39 44 37 41 34 30 31 26 28 30 29 28 27 20 23 22 24 25 26 27 27 31 32 33 34 30 26 25 26 29 28 29 26 20
11 12 12 14 11 13 12 18 20 19 23 22 34 35 33 35 43 44 37 39 38 37 35 32 29 29 30 28 30 33 32 30 29 29 32 32 32 32 33 33 28 26 27 27 26 26 28 27 27
12 13 12 10 10 14 13 19 19 18 18 25 27 32 38 40 36 38 34 37 38 41 38 37 35 34 32 29 26 30 31 33 34 35 32 32 28 30 32 32 28 26 26 29 26 27 26 26 25
14 14 13 14 11 14 9 16 22 21 20 28 32 31 33 43 43 40 39 43 33 42 44 40 38 37 36 31 27 28 34 38 36 33 25 28 28 28 32 30 26 24 26 26 27 26 27 26 26
10 13 17 16 12 9 4 16 12 17 22 15 24 30 34 33 25 45 43 48 46 36 38 41 34 29 31 31 29 29 32 37 35 30 26 29 31 30 30 27 24 23 21 21 24 23 26 24 24
12 12 16 16 14 13 12 11 15 9 18 18 16 29 36 38 33 28 43 42 35 25 28 29 28 27 26 27 31 32 30 33 32 24 27 29 30 30 27 26 23 23 19 20 21 22 19 24 22
13 12 9 7 3 11 14 11 20 14 19 20 20 31 36 39 35 33 39 43 35 34 33 30 30 31 32 33 35 33 32 32 30 24 25 30 31 28 25 23 20 25 17 18 22 19 14 18 23
8 8 4 4 2 5 10 11 16 19 20 19 18 28 38 39 44 42 37 31 35 35 33 33 32 33 32 35 36 36 38 30 26 28 29 31 32 28 22 20 19 22 19 21 16 18 16 18 18
5 4 4 5 10 15 13 9 14 10 18 24 23 32 33 36 44 38 28 42 39 39 42 39 35 33 32 33 38 42 38 32 29 31 33 35 31 27 23 20 19 21 20 22 19 16 16 16 17
11 5 10 10 15 8 11 18 16 20 5 15 25 36 40 42 41 33 11 21 28 33 32 30 33 35 36 36 35 38 36 33 32 32 30 33 24 23 24 19 23 22 20 21 19 16 16 16 15
3 7 7 4 6 5 4 11 5 13 16 18 21 29 41 50 33 8 5 5 11 14 16 17 21 29 36 34 32 33 34 33 29 33 31 28 22 16 19 23 24 21 22 18 15 14 15 13 11
4 3 2 5 6 3 5 3 2 9 11 16 17 38 37 41 33 2 2 6 9 12 16 20 20 21 30 28 28 28 28 26 29 28 26 24 20 17 21 24 22 22 21 18 15 14 12 10 7
4 5 4 2 6 3 3 7 3 6 10 14 18 32 35 38 23 19 11 8 11 14 21 30 20 25 26 25 25 23 22 26 30 26 27 23 21 20 21 24 22 20 18 15 14 13 10 11 9
Wind_Direction
297 216 333 329 31 109 249 254 236 273 281 232 75 54 105 113 141 184 152 163 161 154 151 149 152 153 153 154 152 152 152 153 152 151 150 149 146 142 139 136 132 127 121 113 103 98 88 78 69
292 172 338 275 135 254 266 244 255 253 256 152 79 63 22 74 107 136 149 167 164 156 152 150 153 156 157 159 159 159 162 163 163 162 162 163 165 166 159 157 146 136 125 110 99 88 80 77 71
332 188 299 169 210 232 248 253 284 284 298 102 86 75 28 121 132 149 160 163 166 160 151 151 155 160 164 167 167 169 170 172 173 174 177 181 183 182 181 176 171 167 162 144 110 83 66 58 53
55 316 254 286 259 263 243 276 285 290 299 111 125 103 86 142 145 164 165 165 167 162 155 158 160 166 169 173 178 180 182 184 185 189 194 197 199 199 199 197 199 202 203 198 189 203 14 23 14
320 268 242 254 254 262 268 270 285 313 314 145 153 169 122 152 158 165 169 169 169 165 163 165 166 173 175 178 184 188 194 198 200 203 208 212 215 217 216 219 223 223 226 231 229 247 261 277 301
247 246 296 256 260 264 276 285 314 311 329 289 167 198 175 153 163 172 179 176 173 170 170 173 174 181 183 185 191 195 201 207 210 213 219 223 228 229 232 231 232 233 235 236 233 239 246 254 265
237 256 257 258 276 289 289 292 297 298 332 325 322 326 148 155 168 171 178 175 176 177 174 177 181 185 191 193 196 202 209 215 218 222 227 230 235 238 238 239 237 236 239 239 237 240 242 243 253
245 243 252 257 265 266 276 293 305 308 301 310 341 9 59 167 173 175 176 174 177 183 181 182 187 190 195 199 201 205 214 221 225 228 233 238 239 242 241 242 241 241 243 244 242 243 246 243 246
257 238 247 244 250 266 275 285 301 302 294 294 299 74 40 186 170 167 162 171 181 186 189 190 193 195 197 205 205 210 216 223 230 233 235 240 243 245 245 247 245 244 246 246 244 246 248 246 246
208 231 236 248 257 270 287 298 297 321 327 314 308 263 140 126 159 171 168 175 188 190 199 195 197 200 200 210 212 218 224 229 235 240 241 245 247 250 250 253 250 248 249 248 246 246 248 248 248
237 236 254 259 259 269 279 290 308 315 303 285 296 332 199 196 189 194 185 192 194 196 197 202 204 208 208 216 219 223 229 235 242 248 253 254 253 254 254 254 252 249 248 248 248 247 247 250 252
247 249 239 249 261 274 276 289 290 294 288 286 275 296 303 313 203 212 200 216 197 202 204 200 205 207 213 219 223 226 228 234 243 253 256 257 256 257 256 260 261 257 254 253 254 255 255 255 256
254 262 261 255 256 259 272 272 275 279 281 286 286 279 291 301 244 194 222 215 194 174 197 197 199 202 233 237 238 241 246 256 260 257 257 259 258 259 260 258 260 266 263 258 254 261 260 258 256
296 286 274 264 253 252 251 269 277 268 269 272 277 283 284 289 292 192 230 228 286 173 157 191 187 207 233 241 237 243 249 256 258 258 261 267 270 274 272 270 259 264 263 262 260 259 270 264 254
324 307 297 277 275 271 282 271 248 262 269 261 263 269 273 275 283 277 251 239 249 221 243 195 211 232 232 230 227 236 251 255 252 252 257 264 272 277 280 277 262 263 263 257 261 256 255 257 253
299 291 290 267 267 274 254 268 264 269 258 261 260 250 267 260 263 277 237 246 228 228 226 220 202 201 212 214 220 229 245 250 245 246 250 254 265 271 274 274 267 264 258 248 248 254 250 252 251
259 270 278 282 267 273 237 253 260 263 262 261 256 257 250 261 258 262 269 255 235 228 232 229 227 200 209 221 231 245 244 240 243 245 247 243 250 256 263 266 264 260 255 241 242 246 252 252 246
244 252 260 264 277 283 277 271 278 260 248 251 257 245 244 241 258 262 262 261 262 241 236 220 210 210 212 223 229 240 244 246 249 254 259 258 251 254 260 260 255 253 257 241 237 241 238 247 247
286 294 290 300 333 327 299 292 295 301 301 282 246 248 254 247 248 255 260 258 258 258 233 228 224 228 225 225 234 244 249 256 259 263 265 264 259 252 259 257 250 251 251 240 238 238 238 240 243
316 286 281 299 310 293 304 296 295 294 290 294 289 261 239 244 245 236 241 256 257 252 235 228 231 230 233 234 240 242 247 252 260 265 266 264 254 251 251 249 250 253 250 234 234 234 236 238 239
305 303 301 286 287 276 291 283 292 292 283 286 289 280 268 239 236 239 246 247 262 260 239 226 218 221 235 243 236 241 246 254 257 257 256 250 248 248 251 251 250 255 244 232 231 236 234 238 235
319 334 318 305 299 278 253 283 269 289 291 290 287 292 282 276 273 240 239 243 244 252 235 223 222 225 239 244 244 246 253 255 255 255 251 238 241 246 247 250 253 250 225 229 232 233 233 235 240
308 333 310 312 311 315 288 281 286 289 285 290 287 285 292 277 268 261 237 244 240 229 218 222 227 233 233 238 251 261 262 257 255 258 243 234 238 245 245 247 249 223 220 228 229 228 238 235 231
311 350 323 308 304 271 282 264 276 269 274 282 283 289 285 287 267 255 247 239 240 237 229 221 235 241 246 256 259 259 260 255 248 243 236 233 236 235 242 248 228 204 219 232 218 224 232 220 210
25 7 331 335 311 266 280 283 283 281 266 272 289 288 285 282 286 272 238 233 246 236 238 250 252 246 249 250 252 252 252 248 244 230 231 229 231 231 243 222 222 197 213 212 213 215 209 214 219
278 139 250 251 283 285 290 268 260 271 284 277 293 295 288 284 281 275 259 243 231 238 249 252 252 255 250 244 243 245 244 244 239 227 230 237 239 243 236 223 193 201 208 207 207 214 224 221 231
297 230 243 263 288 295 275 262 278 268 314 11 348 344 337 323 276 271 228 224 227 236 235 234 238 242 246 246 246 239 232 235 230 229 230 234 234 235 232 216 190 199 204 209 205 216 223 234 231
328 338 326 307 279 249 268 292 313 15 355 353 354 345 327 333 282 179 208 195 180 199 227 238 244 245 241 238 237 226 230 226 233 225 225 217 223 222 200 185 188 193 198 202 216 226 228 223 214
338 295 348 309 246 249 308 275 49 40 13 345 347 338 324 322 316 175 262 271 214 215 224 233 247 242 227 226 218 220 222 227 210 213 208 215 202 187 182 186 187 188 194 209 222 228 203 204 232
209 158 153 216 305 224 257 275 143 85 38 341 346 325 321 331 322 330 345 277 251 258 250 237 245 222 210 207 208 214 220 194 195 197 202 196 187 176 180 182 185 196 205 224 214 205 207 209 234